When you browse on this site, cookies collect data to enhance your experience and personalize the content and advertising you see.
Visit our Privacy Policy to learn more. By continuing to use the site, you agree to this use of cookies and data.
  • în România
  • Lista ţărilor
  • Pe 7 zile
  • Temperatura apei
  • Hartă satelitară
  • Meteo pe hartă
  • Widget-uri
  • user-avatar
    Intrare

    Meteo pe oră la Ramushki

    Astăzi, 16 Ianuarie, Miercuri

    Timp Temperatura Precipitaţii Vânt Presiune Umiditate
    00:00 -3°C° 0.4 mm 7 m/s 754 mmHg 92%
    01:00 -3°C° 0.4 mm 7 m/s 754 mmHg 92%
    02:00 -4°C° 0.4 mm 7 m/s 754 mmHg 92%
    03:00 -6°C° 0.4 mm 7 m/s 754 mmHg 92%
    04:00 -7°C° 0.1 mm 7 m/s 754 mmHg 91%
    05:00 -8°C° 0.1 mm 7 m/s 754 mmHg 91%
    06:00 -9°C° 0.1 mm 7 m/s 754 mmHg 90%
    07:00 -11°C° 0 mm 7 m/s 754 mmHg 89%
    08:00 -11°C° 0 mm 7 m/s 754 mmHg 88%
    09:00 -11°C° 0 mm 6 m/s 753 mmHg 87%
    10:00 -11°C° 0 mm 7 m/s 753 mmHg 84%
    11:00 -10°C° 0 mm 8 m/s 752 mmHg 80%
    12:00 -8°C° 0 mm 8 m/s 752 mmHg 76%
    13:00 -8°C° 0 mm 8 m/s 751 mmHg 75%
    14:00 -8°C° 0 mm 9 m/s 750 mmHg 75%
    15:00 -8°C° 0 mm 9 m/s 750 mmHg 74%
    16:00 -7°C° 0.5 mm 8 m/s 749 mmHg 79%
    17:00 -6°C° 0.5 mm 8 m/s 749 mmHg 83%
    18:00 -6°C° 0.5 mm 8 m/s 748 mmHg 88%
    19:00 -5°C° 0.3 mm 8 m/s 748 mmHg 88%
    20:00 -4°C° 0.3 mm 9 m/s 748 mmHg 88%
    21:00 -4°C° 0.3 mm 9 m/s 748 mmHg 87%
    22:00 -3°C° 0.1 mm 9 m/s 748 mmHg 89%
    23:00 -2°C° 0.1 mm 8 m/s 748 mmHg 90%

    Mâine, 17 Ianuarie, Joi

    Timp Temperatura Precipitaţii Vânt Presiune Umiditate
    00:00 -2°C° 0.1 mm 8 m/s 748 mmHg 92%
    01:00 -3°C° 0.1 mm 7 m/s 749 mmHg 90%
    02:00 -5°C° 0.1 mm 5 m/s 750 mmHg 88%
    03:00 -7°C° 0.1 mm 4 m/s 751 mmHg 86%
    04:00 -8°C° 0 mm 4 m/s 752 mmHg 88%
    05:00 -8°C° 0 mm 3 m/s 752 mmHg 90%
    06:00 -9°C° 0 mm 3 m/s 753 mmHg 91%
    07:00 -10°C° 0 mm 3 m/s 754 mmHg 92%
    08:00 -10°C° 0 mm 3 m/s 754 mmHg 92%
    09:00 -12°C° 0 mm 3 m/s 755 mmHg 92%
    10:00 -10°C° 0 mm 2 m/s 755 mmHg 92%
    11:00 -10°C° 0 mm 2 m/s 756 mmHg 92%
    12:00 -9°C° 0 mm 2 m/s 756 mmHg 92%
    13:00 -10°C° 0 mm 2 m/s 756 mmHg 92%
    14:00 -12°C° 0 mm 2 m/s 757 mmHg 92%
    15:00 -12°C° 0 mm 2 m/s 757 mmHg 92%
    16:00 -13°C° 0 mm 2 m/s 757 mmHg 93%
    17:00 -14°C° 0 mm 2 m/s 758 mmHg 93%
    18:00 -15°C° 0 mm 2 m/s 758 mmHg 93%
    19:00 -15°C° 0 mm 2 m/s 759 mmHg 94%
    20:00 -16°C° 0 mm 3 m/s 759 mmHg 95%
    21:00 -17°C° 0 mm 3 m/s 759 mmHg 96%
    22:00 -17°C° 0 mm 3 m/s 759 mmHg 96%
    23:00 -17°C° 0 mm 3 m/s 759 mmHg 96%

    Poimâine, 18 Ianuarie, Vineri

    Timp Temperatura Precipitaţii Vânt Presiune Umiditate
    00:00 -16°C° 0 mm 3 m/s 759 mmHg 96%
    01:00 -16°C° 0 mm 3 m/s 759 mmHg 96%
    02:00 -16°C° 0 mm 3 m/s 759 mmHg 96%
    03:00 -17°C° 0 mm 4 m/s 759 mmHg 96%
    04:00 -17°C° 0 mm 4 m/s 759 mmHg 95%
    05:00 -17°C° 0 mm 4 m/s 759 mmHg 95%
    06:00 -16°C° 0 mm 4 m/s 759 mmHg 94%
    07:00 -17°C° 0 mm 5 m/s 759 mmHg 93%
    08:00 -17°C° 0 mm 5 m/s 759 mmHg 91%
    09:00 -16°C° 0 mm 6 m/s 759 mmHg 90%
    10:00 -15°C° 0 mm 6 m/s 759 mmHg 91%
    11:00 -14°C° 0 mm 6 m/s 758 mmHg 92%
    12:00 -12°C° 0 mm 6 m/s 758 mmHg 92%
    13:00 -12°C° 0 mm 6 m/s 758 mmHg 92%
    14:00 -11°C° 0 mm 5 m/s 758 mmHg 93%
    15:00 -10°C° 0 mm 5 m/s 758 mmHg 93%
    16:00 -10°C° 0 mm 5 m/s 757 mmHg 93%
    17:00 -10°C° 0 mm 5 m/s 757 mmHg 93%
    18:00 -9°C° 0 mm 4 m/s 757 mmHg 93%
    19:00 -10°C° 0 mm 4 m/s 757 mmHg 94%
    20:00 -10°C° 0 mm 4 m/s 757 mmHg 94%
    21:00 -11°C° 0 mm 5 m/s 757 mmHg 94%
    22:00 -11°C° 0 mm 5 m/s 757 mmHg 94%
    23:00 -10°C° 0 mm 5 m/s 756 mmHg 94%

    19 Ianuarie, Sâmbătă

    Timp Temperatura Precipitaţii Vânt Presiune Umiditate
    00:00 -8°C° 0 mm 5 m/s 756 mmHg 93%
    01:00 -7°C° 0 mm 5 m/s 756 mmHg 93%
    02:00 -7°C° 0 mm 5 m/s 756 mmHg 93%
    03:00 -6°C° 0 mm 5 m/s 756 mmHg 93%
    04:00 -6°C° 0 mm 5 m/s 755 mmHg 93%
    05:00 -5°C° 0 mm 5 m/s 755 mmHg 93%
    06:00 -5°C° 0 mm 5 m/s 755 mmHg 93%
    07:00 -5°C° 0.1 mm 5 m/s 754 mmHg 93%
    08:00 -5°C° 0.1 mm 5 m/s 754 mmHg 94%
    09:00 -5°C° 0.1 mm 5 m/s 754 mmHg 94%
    10:00 -4°C° 0.2 mm 5 m/s 754 mmHg 94%
    11:00 -2°C° 0.2 mm 5 m/s 754 mmHg 94%
    12:00 -1°C° 0.2 mm 5 m/s 754 mmHg 94%
    13:00 -2°C° 0.2 mm 5 m/s 754 mmHg 92%
    14:00 -2°C° 0.2 mm 5 m/s 754 mmHg 90%
    15:00 -2°C° 0.2 mm 4 m/s 754 mmHg 88%
    16:00 -4°C° 0 mm 4 m/s 754 mmHg 88%
    17:00 -7°C° 0 mm 4 m/s 755 mmHg 88%
    18:00 -9°C° 0 mm 4 m/s 755 mmHg 89%
    19:00 -10°C° 0 mm 4 m/s 756 mmHg 89%
    20:00 -10°C° 0 mm 3 m/s 756 mmHg 89%
    21:00 -12°C° 0 mm 3 m/s 757 mmHg 89%
    22:00 -13°C° 0 mm 3 m/s 757 mmHg 90%
    23:00 -14°C° 0 mm 3 m/s 757 mmHg 90%

    20 Ianuarie, Duminică

    Timp Temperatura Precipitaţii Vânt Presiune Umiditate
    00:00 -14°C° 0 mm 3 m/s 757 mmHg 91%
    01:00 -14°C° 0 mm 3 m/s 758 mmHg 91%
    02:00 -15°C° 0 mm 3 m/s 758 mmHg 91%
    03:00 -15°C° 0 mm 3 m/s 758 mmHg 92%
    04:00 -15°C° 0 mm 3 m/s 758 mmHg 92%
    05:00 -15°C° 0 mm 3 m/s 758 mmHg 92%
    06:00 -16°C° 0 mm 3 m/s 758 mmHg 93%
    07:00 -15°C° 0 mm 3 m/s 759 mmHg 93%
    08:00 -16°C° 0 mm 4 m/s 759 mmHg 93%
    09:00 -16°C° 0 mm 4 m/s 759 mmHg 93%
    10:00 -15°C° 0 mm 4 m/s 759 mmHg 93%
    11:00 -14°C° 0 mm 4 m/s 759 mmHg 92%
    12:00 -13°C° 0 mm 5 m/s 760 mmHg 91%
    13:00 -12°C° 0 mm 4 m/s 760 mmHg 91%
    14:00 -12°C° 0 mm 4 m/s 760 mmHg 91%
    15:00 -12°C° 0 mm 4 m/s 760 mmHg 91%
    16:00 -12°C° 0 mm 4 m/s 760 mmHg 92%
    17:00 -14°C° 0 mm 4 m/s 761 mmHg 92%
    18:00 -14°C° 0 mm 4 m/s 761 mmHg 93%
    19:00 -15°C° 0 mm 4 m/s 761 mmHg 93%
    20:00 -14°C° 0 mm 3 m/s 762 mmHg 94%
    21:00 -15°C° 0 mm 3 m/s 762 mmHg 94%
    22:00 -16°C° 0 mm 3 m/s 762 mmHg 94%
    23:00 -16°C° 0 mm 3 m/s 763 mmHg 95%

    21 Ianuarie, Luni

    Timp Temperatura Precipitaţii Vânt Presiune Umiditate
    00:00 -17°C° 0 mm 3 m/s 763 mmHg 95%
    01:00 -17°C° 0 mm 3 m/s 763 mmHg 95%
    02:00 -17°C° 0 mm 3 m/s 763 mmHg 96%
    03:00 -17°C° 0 mm 3 m/s 763 mmHg 96%
    04:00 -17°C° 0 mm 3 m/s 764 mmHg 97%
    05:00 -17°C° 0 mm 3 m/s 764 mmHg 97%
    06:00 -17°C° 0 mm 3 m/s 764 mmHg 97%
    07:00 -16°C° 0 mm 3 m/s 764 mmHg 97%
    08:00 -16°C° 0 mm 3 m/s 764 mmHg 96%
    09:00 -15°C° 0 mm 3 m/s 764 mmHg 95%
    10:00 -14°C° 0 mm 3 m/s 764 mmHg 94%
    11:00 -14°C° 0 mm 3 m/s 763 mmHg 93%
    12:00 -13°C° 0 mm 3 m/s 763 mmHg 92%
    13:00 -14°C° 0.2 mm 4 m/s 762 mmHg 92%
    14:00 -14°C° 0.2 mm 4 m/s 762 mmHg 93%
    15:00 -13°C° 0.2 mm 5 m/s 761 mmHg 94%
    16:00 -13°C° 1.1 mm 5 m/s 760 mmHg 94%
    17:00 -14°C° 1.1 mm 6 m/s 759 mmHg 95%
    18:00 -12°C° 1.1 mm 6 m/s 759 mmHg 96%
    19:00 -10°C° 1.2 mm 6 m/s 758 mmHg 95%
    20:00 -8°C° 1.2 mm 7 m/s 757 mmHg 94%
    21:00 -4°C° 1.2 mm 7 m/s 756 mmHg 93%
    22:00 -5°C° 1 mm 8 m/s 755 mmHg 92%
    23:00 -4°C° 1 mm 8 m/s 755 mmHg 91%
    Arată mai mult